Back to catalog

IUS R/B(2)

AliveGEO
NORAD 20932·ROCKET BODY·🇺🇸 United States

Launched Nov 13, 1990 from Cape Canaveral Space Force Station

Loading…

TLE

FreshSource: Space-Track

Epoch: Sep 14, 2026, 08:05 UTC

1 20932U 90095D   26257.33685218  .00000056  00000-0  00000-0 0  9998
2 20932  13.7883 341.5059 0005906  37.1673 322.8938  0.99253179 26617

Track IUS R/B(2) in real time with AllMySat

Download on the App Store